Location: Lourdes
(43.1000°N, 0.0500°W)
Time: 17:56:47
(UTC+00:00)

Cosmos 1151 Rocket - Visible Passes

Search period start: 12 April 2021 00:00
Search period end: 22 April 2021 00:00
Orbit: 592 x 616 km, 82.5° (Epoch: 11 April)

Date Brightness Start Highest point End Pass type
(mag) Time Alt. Az. Time Alt. Az. Time Alt. Az.
12 Apr 5.9 01:08:31 14° N 01:08:31 14° N 01:09:08 10° N visible
13 Apr 5.9 01:20:57 12° NNW 01:20:57 12° NNW 01:21:24 10° NNW visible
13 Apr 6.1 23:56:33 11° NNE 23:56:33 11° NNE 23:56:49 10° NNE visible
15 Apr 5.9 00:08:58 14° NNE 00:08:58 14° NNE 00:09:36 10° NNE visible
16 Apr 5.8 00:21:23 15° N 00:21:23 15° N 00:22:12 10° N visible
17 Apr 5.8 00:33:47 15° NNW 00:33:47 15° NNW 00:34:39 10° N visible
17 Apr 6.0 23:09:20 11° NNE 23:09:20 11° NNE 23:09:29 10° NNE visible
18 Apr 5.8 00:46:10 13° NNW 00:46:10 13° NNW 00:46:53 10° NNW visible
18 Apr 5.8 23:21:43 14° NNE 23:21:43 14° NNE 23:22:26 10° NNE visible
19 Apr 5.9 00:58:32 11° NW 00:58:32 11° NW 00:58:46 10° NNW visible
19 Apr 5.6 23:34:05 18° NNE 23:34:05 18° NNE 23:35:10 10° N visible
20 Apr 5.5 23:46:26 19° N 23:46:26 19° N 23:47:45 10° N visible
